AEROCUBE 4.5A

Last updated on Sun Jun 21 2026 00:03:50 GMT+0000 (Coordinated Universal Time)

1 38767U 12048K 26171.29182622 .00547259 13718-3 10902-2 0 9994 2 38767 64.6225 15.4844 0019141 232.0670 127.8765 15.99221557373151
UTC large
Height (km)
Speed (km/s)
/
Latitude / Longitude
Inclination (degrees)
Orbital Period (minutes)
Azimuth
Elevation
Range (km)
Doppler Factor

Next 0 passes for location: London (51.5072 / 0.1276)

No passes found over London.
AEROCUBE 4.5A